FW3040 Weather Reports


time (UTC)temp
C
wind
direction
speed
KPH
gust
KPH
rain 1hr
cm
rain 24hr
cm
rain mn
cm
humidity
%
barometer
mb
20260506112626 18 253 1.6 3.2 0.00 0.00 0.00 89 1017.6
20260506112526 18 252 3.2 4.8 0.00 0.00 0.00 89 1017.5
20260506111626 17 230 4.8 11.3 0.00 0.00 0.00 90 1017.6
20260506110628 17 238 0.0 3.2 0.00 0.00 0.00 90 1017.4
20260506105726 17 337 0.0 1.6 0.00 0.00 0.00 90 1017.4
20260506104726 17 244 3.2 6.4 0.00 0.00 0.00 90 1017.5
20260506102727 17 234 1.6 8.0 0.00 0.00 0.00 91 1017.7
20260506101729 17 225 0.0 0.0 0.00 0.00 0.00 90 1017.3
20260506095826 16 258 1.6 3.2 0.00 0.00 0.00 90 1017.3
20260506094842 16 247 0.0 0.0 0.00 0.00 0.00 90 1017.3
20260506093926 16 247 0.0 0.0 0.00 0.00 0.00 90 1017.5
20260506093026 16 225 0.0 0.0 0.00 0.00 0.00 89 1017.5
20260506092027 17 247 0.0 0.0 0.00 0.00 0.00 89 1017.7
20260506090027 17 259 0.0 1.6 0.00 0.00 0.00 89 1017.8
20260506084025 17 252 1.6 3.2 0.00 0.00 0.00 89 1017.7
20260506082027 17 225 0.0 0.0 0.00 0.00 0.00 89 1017.6
20260506080141 17 255 1.6 3.2 0.00 0.00 0.00 89 1017.3
20260506072126 17 225 0.0 0.0 0.00 0.00 0.00 87 1017.5
20260506071126 17 90 0.0 0.0 0.00 0.00 0.00 87 1017.4
20260506070142 17 270 0.0 0.0 0.00 0.00 0.00 87 1017.6
20260506062427 17 223 3.2 6.4 0.00 0.00 0.00 86 1017.9
20260506061428 17 247 1.6 3.2 0.00 0.00 0.00 86 1018.2
20260506060442 17 246 4.8 6.4 0.00 0.00 0.00 86 1018.2
20260506044626 17 307 0.0 1.6 0.00 0.00 0.00 85 1018.8
20260506043644 18 227 1.6 6.4 0.00 0.00 0.00 84 1018.9
20260506043525 18 247 1.6 6.4 0.00 0.00 0.00 84 1018.9
20260506042527 18 233 1.6 8.0 0.00 0.00 0.00 84 1019.0
20260506035528 18 236 4.8 11.3 0.00 0.00 0.00 83 1018.9
20260506034529 18 248 3.2 9.7 0.00 0.00 0.00 83 1018.8
20260506033529 18 240 3.2 9.7 0.00 0.00 0.00 82 1018.8
20260506030529 18 240 3.2 4.8 0.00 0.00 0.00 80 1018.9
20260506024630 18 228 3.2 8.0 0.00 0.00 0.00 77 1018.9
20260506023631 18 235 3.2 8.0 0.00 0.00 0.00 76 1018.8
20260506023531 18 263 3.2 9.7 0.00 0.00 0.00 75 1018.9
20260506022629 18 233 3.2 8.0 0.00 0.00 0.00 74 1018.8
20260506021632 19 228 0.0 3.2 0.00 0.00 0.00 74 1018.8
20260506020631 19 246 6.4 14.5 0.00 0.00 0.00 73 1018.7
20260506015630 19 252 4.8 11.3 0.00 0.00 0.00 73 1018.8
20260506014729 19 229 1.6 4.8 0.00 0.00 0.00 73 1018.7
20260506013732 19 247 4.8 9.7 0.00 0.00 0.00 72 1018.6
20260506013629 19 259 4.8 12.9 0.00 0.00 0.00 72 1018.4
20260506011630 20 246 0.0 3.2 0.00 0.00 0.00 71 1018.4
20260506005632 20 225 1.6 4.8 0.00 0.00 0.00 67 1018.3
20260506004728 20 279 3.2 6.4 0.00 0.00 0.00 67 1017.9
20260506003730 20 229 4.8 9.7 0.00 0.00 0.00 68 1018.0
20260506002728 20 231 3.2 9.7 0.00 0.00 0.00 68 1018.0
20260506001731 20 223 6.4 11.3 0.00 0.00 0.00 68 1017.9
20260506000730 21 212 4.8 12.9 0.00 0.00 0.00 66 1017.9
20260505235730 21 233 4.8 11.3 0.00 0.00 0.00 65 1017.6
20260505234732 21 235 4.8 12.9 0.00 0.00 0.00 64 1017.5
20260505233729 21 243 1.6 6.4 0.00 0.00 0.00 63 1017.3
20260505232730 22 321 0.0 4.8 0.00 0.00 0.00 61 1017.4
20260505231731 22 321 3.2 8.0 0.00 0.00 0.00 61 1017.2
20260505225731 22 228 8.0 14.5 0.00 0.00 0.00 59 1017.0
20260505224728 22 210 4.8 12.9 0.00 0.00 0.00 60 1017.1
20260505223731 23 209 3.2 8.0 0.00 0.00 0.00 60 1017.1
20260505222728 23 262 4.8 11.3 0.00 0.00 0.00 60 1017.2
20260505221745 23 250 3.2 8.0 0.00 0.00 0.00 59 1017.1
20260505214830 24 206 4.8 11.3 0.00 0.00 0.00 55 1016.8
20260505213846 25 227 4.8 14.5 0.00 0.00 0.00 54 1016.9
20260505211830 25 206 9.7 16.1 0.00 0.00 0.00 52 1016.8
20260505210832 25 228 6.4 12.9 0.00 0.00 0.00 51 1016.8
20260505205829 26 212 4.8 17.7 0.00 0.00 0.00 50 1016.8
20260505204830 26 227 6.4 14.5 0.00 0.00 0.00 49 1016.7
20260505203829 25 229 4.8 8.0 0.00 0.00 0.00 48 1016.8
20260505202928 26 233 4.8 11.3 0.00 0.00 0.00 47 1017.0
20260505201930 26 250 9.7 16.1 0.00 0.00 0.00 47 1017.0
20260505195930 26 246 6.4 17.7 0.00 0.00 0.00 44 1017.4
20260505193929 26 234 4.8 11.3 0.00 0.00 0.00 45 1017.5
20260505193029 26 245 6.4 16.1 0.00 0.00 0.00 44 1017.7
20260505192030 26 222 3.2 9.7 0.00 0.00 0.00 45 1017.8
20260505191032 26 255 6.4 19.3 0.00 0.00 0.00 45 1018.0
20260505190128 26 189 6.4 16.1 0.00 0.00 0.00 46 1018.0
20260505190029 26 248 6.4 16.1 0.00 0.00 0.00 46 1018.1
20260505184129 26 240 12.9 22.5 0.00 0.00 0.00 47 1018.2
20260505183132 25 213 3.2 12.9 0.00 0.00 0.00 47 1018.2
20260505182128 26 207 3.2 11.3 0.00 0.00 0.00 47 1018.1
20260505181130 26 253 12.9 24.1 0.00 0.00 0.00 47 1018.1
20260505180229 26 215 1.6 6.4 0.00 0.00 0.00 46 1018.3
20260505175230 25 173 3.2 12.9 0.00 0.00 0.00 45 1018.3
20260505174230 25 185 3.2 9.7 0.00 0.00 0.00 46 1018.3
20260505173228 25 248 6.4 19.3 0.00 0.00 0.00 47 1018.6
20260505172229 25 279 1.6 12.9 0.00 0.00 0.00 48 1018.7
20260505171229 25 248 8.0 24.1 0.00 0.00 0.00 48 1018.7
20260505170231 24 251 9.7 17.7 0.00 0.00 0.00 49 1019.0
20260505165230 25 236 16.1 22.5 0.00 0.00 0.00 48 1018.9
20260505163231 24 244 6.4 14.5 0.00 0.00 0.00 49 1019.1
20260505162229 24 248 17.7 25.7 0.00 0.00 0.00 48 1019.1
20260505161230 23 233 8.0 11.3 0.00 0.00 0.00 50 1019.4
20260505160231 23 247 14.5 19.3 0.00 0.00 0.00 50 1019.3
20260505153230 22 233 11.3 16.1 0.00 0.00 0.00 53 1019.5
20260505152232 23 237 12.9 20.9 0.00 0.00 0.00 54 1019.6
20260505151231 22 241 9.7 14.5 0.00 0.00 0.00 54 1019.8
20260505150230 22 236 8.0 12.9 0.00 0.00 0.00 55 1019.7
20260505150128 22 235 11.3 17.7 0.00 0.00 0.00 56 1019.5
20260505140229 20 246 14.5 22.5 0.00 0.00 0.00 62 1019.6
20260505130230 18 244 14.5 22.5 0.00 0.00 0.00 70 1019.9
20260505124231 17 238 8.0 14.5 0.00 0.00 0.00 73 1019.8
20260505123329 17 235 11.3 16.1 0.00 0.00 0.00 74 1019.9
20260505122329 17 239 12.9 19.3 0.00 0.00 0.00 76 1019.8
20260505121331 16 243 8.0 11.3 0.00 0.00 0.00 77 1019.9
20260505120332 16 247 9.7 12.9 0.00 0.00 0.00 77 1020.0
20260505115330 16 248 8.0 12.9 0.00 0.00 0.00 79 1019.8
20260505114330 15 243 12.9 16.1 0.00 0.00 0.00 80 1019.8
20260505113331 15 254 6.4 9.7 0.00 0.00 0.00 81 1019.7